Weather Roundup
Issued by NWS Springfield, MO

Home | Current Version | Previous Version | Text Only | Print | Product List | Glossary On
Versions: 1 2 3 4 5 6 7 8 9 10 11 12 13 14 15 16 17 18 19 20 21 22 23 24 25 26 27 28 29 30 31 32 33 34 35 36 37 38 39 40 41 42 43 44 45 46 47 48 49 50
000
NZUS99 KSGF 172157
HRRSGF

HOURLY WEATHER
NATIONAL WEATHER SERVICE SPRINGFIELD MO
500 PM CDT THU AUG 17 2017

......SGF CWA......

CITY           SKY/WX    TMP DP  RH WIND       PRES   REMARKS
SPRINGFIELD    MOSUNNY   83  68  60 NW10G20   29.96F
JOPLIN         MOSUNNY   86  70  58 W12G18    29.98F HX  90
WEST PLAINS    PTSUNNY   83  68  60 W7G16     29.96F
ROLLA          CLOUDY    80  66  62 W14       29.94S

......SURROUNDING SGF CWA......

CITY           SKY/WX    TMP DP  RH WIND       PRES   REMARKS
CHANUTE        SUNNY     85  59  41 W9        29.99F
PARSONS        SUNNY     85  61  44 SW7       30.00F
COFFEYVILLE    SUNNY     86  63  45 NW9       29.98F
EMPORIA        SUNNY     85  58  39 N8        29.99F
HARRISON AR    CLOUDY    83  68  60 W7        29.99F

......KANSAS AND MISSOURI......

CITY           SKY/WX    TMP DP  RH WIND       PRES   REMARKS
KANSAS CTY INT MOSUNNY   84  62  47 W7        29.94F
SEDALIA        SUNNY     83  65  54 W12       29.93F
ST JOSEPH      SUNNY     83  61  47 W14       29.93S
ST LOUIS       PTSUNNY   84  67  56 SW18      29.87R
WICHITA        MOSUNNY   87  56  34 CALM      30.00F
TOPEKA         SUNNY     86  59  39 W6        29.95S
OLATHE         SUNNY     81  60  48 W10       29.96F

......TENNESSEE......

CITY           SKY/WX    TMP DP  RH WIND       PRES   REMARKS
MEMPHIS        CLOUDY    79  77  94 SW8       29.94S
NASHVILLE      PTSUNNY   87  72  60 SW7       29.94S HX  93

......ARKANSAS.......

CITY           SKY/WX    TMP DP  RH WIND       PRES   REMARKS
FAYETTEVILLE   SUNNY     83  70  64 W9        30.00F
FT SMITH       CLOUDY    86  73  65 W9        29.96F HX  93
LITTLE ROCK    PTSUNNY   86  74  67 NW12      29.94F HX  94

......OKLAHOMA.......

CITY           SKY/WX    TMP DP  RH WIND       PRES   REMARKS
TULSA          MOSUNNY   90  68  48 NW7       29.95F HX  94
PONCA CITY     SUNNY     88  61  40 CALM      29.99F
MCALESTER      MOSUNNY   87  75  67 SW3       29.98F HX  96
OKLAHOMA CITY  MOSUNNY   90  63  40 N7        29.99F HX  91

......IOWA............

CITY           SKY/WX    TMP DP  RH WIND       PRES   REMARKS
DES MOINES     NOT AVBL
QUAD CITIES    SUNNY     82  64  54 W18G26    29.77S

......ILLINOIS........

CITY           SKY/WX    TMP DP  RH WIND       PRES   REMARKS
QUINCY         NOT AVBL
CHICAGO        CLOUDY    81  64  56 SW17G29   29.72S



USA.gov is the U.S. government's official web portal to all federal, state and local government web resources and services.